Weather History for KSDL - January, 2014

Change the Weather History Date:

Sunday, January 5, 2014

  Actual Average Record
Temperature  
Mean Temperature 51 °F -  
Max Temperature 63 °F 62 °F 78 °F (2006)
Min Temperature 39 °F 42 °F 33 °F (2013)
Degree Days  
Heating Degree Days 14    
Growing Degree Days 1 (Base 50)    
Moisture  
Dew Point 25 °F    
Average Humidity 43    
Maximum Humidity 77    
Minimum Humidity 14    
Precipitation  
Precipitation 0.00 in - - ()
Sea Level Pressure  
Sea Level Pressure 30.11 in    
Wind  
Wind Speed 1 mph (West)    
Max Wind Speed 6 mph    
Max Gust Speed -    
Visibility 10 miles    
Events      
Averages and records for this station are not official NWS values.
T = Trace of Precipitation, MM = Missing Value Source: NWS Daily Summary

Daily Weather History Graph

Daily Weather History Graph

Search for Another Location

Airport or City:

Trip Planner

Search our weather history database for the weather conditions in past years. The results will help you decide how hot, cold, wet, or windy it might be!

Date:

Astronomy

Jan. 05, 2014 Rise Set
Actual Time 7:32 AM MST 5:33 PM MST
Civil Twilight 7:05 AM MST 6:01 PM MST
Nautical Twilight 6:34 AM MST 6:32 PM MST
Astronomical Twilight 6:04 AM MST 7:02 PM MST
Moon 10:31 AM MST (1/5) 10:48 PM MST (1/5)
Length of Visible Light 10h 55m
Length of Day
10h 00m
Waxing Crescent, 25% of the Moon is Illuminated
Jan 5
Waxing Crescent
Jan 7
First Quarter
Jan 15
Full
Jan 23
Last Quarter
Jan 30
New

Hourly Weather History & Observations

Time (MST) Temp. Windchill Dew Point Humidity Pressure Visibility Wind Dir Wind Speed Gust Speed Precip Events Conditions
12:53 AM 46.0 °F - 35.1 °F 66% 30.01 in 10.0 mi Calm Calm - N/A   Clear
1:53 AM 46.0 °F 44.8 °F 35.1 °F 66% 30.02 in 10.0 mi NW 3.5 mph - N/A   Clear
2:53 AM 43.0 °F - 34.0 °F 71% 30.03 in 10.0 mi Calm Calm - N/A   Clear
3:53 AM 42.1 °F - 34.0 °F 73% 30.04 in 10.0 mi Calm Calm - N/A   Clear
4:53 AM 39.9 °F - 33.1 °F 77% 30.06 in 6.0 mi Calm Calm - N/A   Haze
5:53 AM 42.1 °F - 33.1 °F 70% 30.07 in 10.0 mi Calm Calm - N/A   Clear
6:53 AM 41.0 °F - 32.0 °F 70% 30.09 in 10.0 mi Calm Calm - N/A   Clear
7:53 AM 39.9 °F - 32.0 °F 73% 30.12 in 10.0 mi Calm Calm - N/A   Clear
8:53 AM 46.9 °F - 33.1 °F 59% 30.15 in 10.0 mi Calm Calm - N/A   Clear
9:53 AM 52.0 °F - 32.0 °F 47% 30.17 in 10.0 mi Calm Calm - N/A   Clear
10:53 AM 55.9 °F - 25.0 °F 30% 30.17 in 10.0 mi Calm Calm - N/A   Clear
11:53 AM 59.0 °F - 19.0 °F 21% 30.14 in 10.0 mi SSW 5.8 mph - N/A   Clear
12:53 PM 60.1 °F - 19.0 °F 20% 30.11 in 10.0 mi Variable 3.5 mph - N/A   Clear
1:53 PM 62.1 °F - 21.0 °F 21% 30.09 in 10.0 mi West 4.6 mph - N/A   Clear
2:53 PM 63.0 °F - 19.0 °F 18% 30.09 in 10.0 mi Calm Calm - N/A   Clear
3:53 PM 63.0 °F - 17.1 °F 17% 30.09 in 10.0 mi SW 3.5 mph - N/A   Clear
4:53 PM 63.0 °F - 12.9 °F 14% 30.09 in 10.0 mi WNW 3.5 mph - N/A   Clear
5:53 PM 59.0 °F - 15.1 °F 18% 30.11 in 10.0 mi Calm Calm - N/A   Clear
6:53 PM 55.0 °F - 18.0 °F 23% 30.14 in 10.0 mi Calm Calm - N/A   Clear
7:53 PM 53.1 °F - 19.9 °F 27% 30.15 in 10.0 mi Calm Calm - N/A   Clear
8:53 PM 51.1 °F - 19.9 °F 29% 30.17 in 10.0 mi Calm Calm - N/A   Clear
9:53 PM 45.0 °F - 24.1 °F 44% 30.17 in 10.0 mi Calm Calm - N/A   Clear
10:53 PM 45.0 °F - 23.0 °F 42% 30.18 in 10.0 mi Calm Calm - N/A   Clear
11:53 PM 44.1 °F - 21.9 °F 42% 30.18 in 10.0 mi Calm Calm - N/A   Clear